Time,TemperatureF,DewpointF,PressureIn,WindDirection,WindDirectionDegrees,WindSpeedMPH,WindSpeedGustMPH,Humidity,HourlyPrecipIn,Conditions,Clouds,dailyrainin,SolarRadiationWatts/m^2,SoftwareType,DateUTC
2013-01-13 00:22:00,66.0,66.0,-100.00,SE,132,5.0,10.0,100,0.00,,,0.01,0.000000,,2013-01-13 10:22:00,
2013-01-13 00:32:00,66.0,66.0,-100.00,SE,132,5.0,10.0,100,0.00,,,0.01,0.000000,,2013-01-13 10:32:00,
2013-01-13 00:42:00,66.0,66.0,-100.00,SE,132,5.0,10.0,100,0.00,,,0.01,0.000000,,2013-01-13 10:42:00,
2013-01-13 00:52:00,66.0,66.0,-100.00,SE,132,5.0,10.0,100,0.00,,,0.01,0.000000,,2013-01-13 10:52:00,
2013-01-13 01:22:00,66.0,66.0,-100.00,ESE,116,4.0,9.0,100,0.00,,,0.01,0.000000,,2013-01-13 11:22:00,
2013-01-13 01:32:00,66.0,66.0,-100.00,ESE,116,4.0,9.0,100,0.00,,,0.01,0.000000,,2013-01-13 11:32:00,
2013-01-13 01:42:00,66.0,66.0,-100.00,ESE,116,4.0,9.0,100,0.00,,,0.01,0.000000,,2013-01-13 11:42:00,
2013-01-13 01:52:00,66.0,66.0,-100.00,ESE,116,4.0,9.0,100,0.00,,,0.01,0.000000,,2013-01-13 11:52:00,
2013-01-13 02:22:00,66.0,66.0,-100.00,SE,131,3.0,9.0,100,0.00,,,0.00,0.000000,,2013-01-13 12:22:00,
2013-01-13 02:32:00,66.0,66.0,-100.00,SE,131,3.0,9.0,100,0.00,,,0.00,0.000000,,2013-01-13 12:32:00,
2013-01-13 02:42:00,66.0,66.0,-100.00,SE,131,3.0,9.0,100,0.00,,,0.00,0.000000,,2013-01-13 12:42:00,
2013-01-13 02:52:00,66.0,66.0,-100.00,SE,131,3.0,9.0,100,0.00,,,0.00,0.000000,,2013-01-13 12:52:00,
2013-01-13 03:22:00,67.0,67.0,-100.00,ESE,112,4.0,11.0,100,0.01,,,0.01,0.000000,,2013-01-13 13:22:00,
2013-01-13 03:32:00,67.0,67.0,-100.00,ESE,112,4.0,11.0,100,0.01,,,0.01,0.000000,,2013-01-13 13:32:00,
2013-01-13 03:42:00,67.0,67.0,-100.00,ESE,112,4.0,11.0,100,0.01,,,0.01,0.000000,,2013-01-13 13:42:00,
2013-01-13 03:53:00,67.0,67.0,-100.00,ESE,112,4.0,11.0,100,0.01,,,0.01,0.000000,,2013-01-13 13:53:00,
2013-01-13 04:22:00,64.0,64.0,-100.00,ESE,108,4.0,7.0,99,0.00,,,0.01,0.000000,,2013-01-13 14:22:00,
2013-01-13 04:33:00,64.0,64.0,-100.00,ESE,108,4.0,7.0,99,0.00,,,0.01,0.000000,,2013-01-13 14:33:00,
2013-01-13 04:42:00,64.0,64.0,-100.00,ESE,108,4.0,7.0,99,0.00,,,0.01,0.000000,,2013-01-13 14:42:00,
2013-01-13 04:52:00,64.0,64.0,-100.00,ESE,108,4.0,7.0,99,0.00,,,0.01,0.000000,,2013-01-13 14:52:00,
2013-01-13 05:22:00,64.0,63.0,-100.00,East,80,4.0,7.0,96,0.00,,,0.01,0.000000,,2013-01-13 15:22:00,
2013-01-13 05:33:00,64.0,63.0,-100.00,East,80,4.0,7.0,96,0.00,,,0.01,0.000000,,2013-01-13 15:33:00,
2013-01-13 05:43:00,64.0,63.0,-100.00,East,80,4.0,7.0,96,0.00,,,0.01,0.000000,,2013-01-13 15:43:00,
2013-01-13 05:52:00,64.0,63.0,-100.00,East,80,4.0,7.0,96,0.00,,,0.01,0.000000,,2013-01-13 15:52:00,
2013-01-13 06:22:00,64.0,63.0,-100.00,East,80,4.0,8.0,95,0.00,,,0.01,0.000000,,2013-01-13 16:22:00,
2013-01-13 06:33:00,64.0,63.0,-100.00,East,80,4.0,8.0,95,0.00,,,0.01,0.000000,,2013-01-13 16:33:00,
2013-01-13 06:42:00,64.0,63.0,-100.00,East,80,4.0,8.0,95,0.00,,,0.01,0.000000,,2013-01-13 16:42:00,
2013-01-13 06:52:00,64.0,63.0,-100.00,East,80,4.0,8.0,95,0.00,,,0.01,0.000000,,2013-01-13 16:52:00,
2013-01-13 07:22:00,66.0,65.0,-100.00,ENE,68,3.0,8.0,95,0.00,,,0.01,0.000000,,2013-01-13 17:22:00,
2013-01-13 07:33:00,66.0,65.0,-100.00,ENE,68,3.0,8.0,95,0.00,,,0.01,0.000000,,2013-01-13 17:33:00,
2013-01-13 07:42:00,66.0,65.0,-100.00,ENE,68,3.0,8.0,95,0.00,,,0.01,0.000000,,2013-01-13 17:42:00,
2013-01-13 07:52:00,66.0,65.0,-100.00,ENE,68,3.0,8.0,95,0.00,,,0.01,0.000000,,2013-01-13 17:52:00,
2013-01-13 08:22:00,68.0,65.0,-100.00,East,99,3.0,7.0,91,0.00,,,-99.99,28.000000,,2013-01-13 18:22:00,
2013-01-13 08:32:00,68.0,65.0,-100.00,East,99,3.0,7.0,91,0.00,,,-99.99,28.000000,,2013-01-13 18:32:00,
2013-01-13 08:42:00,68.0,65.0,-100.00,East,99,3.0,7.0,91,0.00,,,-99.99,28.000000,,2013-01-13 18:42:00,
2013-01-13 08:53:00,68.0,65.0,-100.00,East,99,3.0,7.0,91,0.00,,,-99.99,28.000000,,2013-01-13 18:53:00,
2013-01-13 09:22:00,68.0,65.0,-100.00,SSW,201,2.0,5.0,90,0.00,,,0.01,97.000000,,2013-01-13 19:22:00,
2013-01-13 09:33:00,68.0,65.0,-100.00,SSW,201,2.0,5.0,90,0.00,,,0.01,97.000000,,2013-01-13 19:33:00,
2013-01-13 09:42:00,68.0,65.0,-100.00,SSW,201,2.0,5.0,90,0.00,,,0.01,97.000000,,2013-01-13 19:42:00,
2013-01-13 09:52:00,68.0,65.0,-100.00,SSW,201,2.0,5.0,90,0.00,,,0.01,97.000000,,2013-01-13 19:52:00,
2013-01-13 10:22:00,72.0,68.0,-100.00,NE,51,1.0,9.0,88,0.00,,,0.01,204.000000,,2013-01-13 20:22:00,
2013-01-13 10:32:00,72.0,68.0,-100.00,NE,51,1.0,9.0,88,0.00,,,0.01,204.000000,,2013-01-13 20:32:00,
2013-01-13 10:43:00,72.0,68.0,-100.00,NE,51,1.0,9.0,88,0.00,,,0.01,204.000000,,2013-01-13 20:43:00,
2013-01-13 10:52:00,72.0,68.0,-100.00,NE,51,1.0,9.0,88,0.00,,,0.01,204.000000,,2013-01-13 20:52:00,
2013-01-13 11:23:00,79.0,69.0,-100.00,SSW,206,3.0,8.0,72,0.00,,,0.01,458.000000,,2013-01-13 21:23:00,
2013-01-13 11:32:00,79.0,69.0,-100.00,SSW,206,3.0,8.0,72,0.00,,,0.01,458.000000,,2013-01-13 21:32:00,
2013-01-13 11:42:00,79.0,69.0,-100.00,SSW,206,3.0,8.0,72,0.00,,,0.01,458.000000,,2013-01-13 21:42:00,
2013-01-13 11:52:00,79.0,69.0,-100.00,SSW,206,3.0,8.0,72,0.00,,,0.01,458.000000,,2013-01-13 21:52:00,
2013-01-13 12:22:00,78.0,67.0,-100.00,SSW,195,5.0,13.0,69,0.00,,,0.01,679.000000,,2013-01-13 22:22:00,
2013-01-13 12:33:00,78.0,67.0,-100.00,SSW,195,5.0,13.0,69,0.00,,,0.01,679.000000,,2013-01-13 22:33:00,
2013-01-13 12:42:00,78.0,67.0,-100.00,SSW,195,5.0,13.0,69,0.00,,,0.01,679.000000,,2013-01-13 22:42:00,
2013-01-13 12:52:00,78.0,67.0,-100.00,SSW,195,5.0,13.0,69,0.00,,,0.01,679.000000,,2013-01-13 22:52:00,
2013-01-13 13:22:00,79.0,65.0,-100.00,SSW,192,7.0,17.0,62,0.00,,,-99.99,820.000000,,2013-01-13 23:22:00,
2013-01-13 13:32:00,79.0,65.0,-100.00,SSW,192,7.0,17.0,62,0.00,,,-99.99,820.000000,,2013-01-13 23:32:00,
2013-01-13 13:42:00,79.0,65.0,-100.00,SSW,192,7.0,17.0,62,0.00,,,-99.99,820.000000,,2013-01-13 23:42:00,
2013-01-13 13:52:00,79.0,65.0,-100.00,SSW,192,7.0,17.0,62,0.00,,,-99.99,820.000000,,2013-01-13 23:52:00,
2013-01-13 14:22:00,77.0,64.0,-100.00,SSE,161,6.0,15.0,64,0.00,,,0.01,526.000000,,2013-01-14 00:22:00,
2013-01-13 14:32:00,77.0,64.0,-100.00,SSE,161,6.0,15.0,64,0.00,,,0.01,526.000000,,2013-01-14 00:32:00,
2013-01-13 14:42:00,77.0,64.0,-100.00,SSE,161,6.0,15.0,64,0.00,,,0.01,526.000000,,2013-01-14 00:42:00,
2013-01-13 14:52:00,77.0,64.0,-100.00,SSE,161,6.0,15.0,64,0.00,,,0.01,526.000000,,2013-01-14 00:52:00,
2013-01-13 15:22:00,78.0,66.0,-100.00,South,182,6.0,15.0,66,0.00,,,0.01,494.000000,,2013-01-14 01:22:00,
2013-01-13 15:32:00,78.0,66.0,-100.00,South,182,6.0,15.0,66,0.00,,,0.01,494.000000,,2013-01-14 01:32:00,
2013-01-13 15:42:00,78.0,66.0,-100.00,South,182,6.0,15.0,66,0.00,,,0.01,494.000000,,2013-01-14 01:42:00,
2013-01-13 15:52:00,78.0,66.0,-100.00,South,182,6.0,15.0,66,0.00,,,0.01,494.000000,,2013-01-14 01:52:00,
2013-01-13 16:22:00,78.0,64.0,-100.00,WNW,300,8.0,17.0,63,0.00,,,0.01,546.000000,,2013-01-14 02:22:00,
2013-01-13 16:32:00,78.0,64.0,-100.00,WNW,300,8.0,17.0,63,0.00,,,0.01,546.000000,,2013-01-14 02:32:00,
2013-01-13 16:42:00,78.0,64.0,-100.00,WNW,300,8.0,17.0,63,0.00,,,0.01,546.000000,,2013-01-14 02:42:00,
2013-01-13 16:53:00,78.0,64.0,-100.00,WNW,300,8.0,17.0,63,0.00,,,0.01,546.000000,,2013-01-14 02:53:00,
2013-01-13 17:22:00,76.0,67.0,-100.00,North,6,6.0,17.0,73,0.00,,,0.01,326.000000,,2013-01-14 03:22:00,
2013-01-13 17:32:00,76.0,67.0,-100.00,North,6,6.0,17.0,73,0.00,,,0.01,326.000000,,2013-01-14 03:32:00,
2013-01-13 17:42:00,76.0,67.0,-100.00,North,6,6.0,17.0,73,0.00,,,0.01,326.000000,,2013-01-14 03:42:00,
2013-01-13 17:52:00,76.0,67.0,-100.00,North,6,6.0,17.0,73,0.00,,,0.01,326.000000,,2013-01-14 03:52:00,
2013-01-13 18:12:00,72.0,68.0,-100.00,SSW,196,5.0,15.0,86,0.00,,,0.01,111.000000,,2013-01-14 04:12:00,
2013-01-13 18:22:00,72.0,68.0,-100.00,SSW,196,5.0,15.0,86,0.00,,,0.01,111.000000,,2013-01-14 04:22:00,
2013-01-13 18:32:00,72.0,68.0,-100.00,SSW,196,5.0,15.0,86,0.00,,,0.01,111.000000,,2013-01-14 04:32:00,
2013-01-13 18:42:00,72.0,68.0,-100.00,SSW,196,5.0,15.0,86,0.00,,,0.01,111.000000,,2013-01-14 04:42:00,
2013-01-13 18:52:00,72.0,68.0,-100.00,SSW,196,5.0,15.0,86,0.00,,,0.01,111.000000,,2013-01-14 04:52:00,
2013-01-13 19:22:00,69.0,68.0,-100.00,SSE,165,2.0,11.0,97,0.00,,,0.01,4.000000,,2013-01-14 05:22:00,
2013-01-13 19:32:00,69.0,68.0,-100.00,SSE,165,2.0,11.0,97,0.00,,,0.01,4.000000,,2013-01-14 05:32:00,
2013-01-13 19:42:00,69.0,68.0,-100.00,SSE,165,2.0,11.0,97,0.00,,,0.01,4.000000,,2013-01-14 05:42:00,
2013-01-13 19:52:00,69.0,68.0,-100.00,SSE,165,2.0,11.0,97,0.00,,,0.01,4.000000,,2013-01-14 05:52:00,
2013-01-13 20:22:00,68.0,68.0,-100.00,SSE,163,2.0,7.0,100,0.00,,,0.01,0.000000,,2013-01-14 06:22:00,
2013-01-13 20:32:00,68.0,68.0,-100.00,SSE,163,2.0,7.0,100,0.00,,,0.01,0.000000,,2013-01-14 06:32:00,
2013-01-13 20:42:00,68.0,68.0,-100.00,SSE,163,2.0,7.0,100,0.00,,,0.01,0.000000,,2013-01-14 06:42:00,
2013-01-13 20:52:00,68.0,68.0,-100.00,SSE,163,2.0,7.0,100,0.00,,,0.01,0.000000,,2013-01-14 06:52:00,
2013-01-13 21:22:00,66.0,66.0,-100.00,SSE,165,3.0,7.0,100,0.00,,,0.01,0.000000,,2013-01-14 07:22:00,
2013-01-13 21:32:00,66.0,66.0,-100.00,SSE,165,3.0,7.0,100,0.00,,,0.01,0.000000,,2013-01-14 07:32:00,
2013-01-13 21:42:00,66.0,66.0,-100.00,SSE,165,3.0,7.0,100,0.00,,,0.01,0.000000,,2013-01-14 07:42:00,
2013-01-13 21:52:00,66.0,66.0,-100.00,SSE,165,3.0,7.0,100,0.00,,,0.01,0.000000,,2013-01-14 07:52:00,
2013-01-13 22:22:00,68.0,68.0,-100.00,ESE,114,3.0,7.0,100,0.00,,,0.01,0.000000,,2013-01-14 08:22:00,
2013-01-13 22:32:00,68.0,68.0,-100.00,ESE,114,3.0,7.0,100,0.00,,,0.01,0.000000,,2013-01-14 08:32:00,
2013-01-13 22:42:00,68.0,68.0,-100.00,ESE,114,3.0,7.0,100,0.00,,,0.01,0.000000,,2013-01-14 08:42:00,
2013-01-13 22:52:00,68.0,68.0,-100.00,ESE,114,3.0,7.0,100,0.00,,,0.01,0.000000,,2013-01-14 08:52:00,
2013-01-13 23:22:00,67.0,67.0,-100.00,SE,136,3.0,9.0,100,0.00,,,0.01,0.000000,,2013-01-14 09:22:00,
2013-01-13 23:33:00,67.0,67.0,-100.00,SE,136,3.0,9.0,100,0.00,,,0.01,0.000000,,2013-01-14 09:33:00,
2013-01-13 23:42:00,67.0,67.0,-100.00,SE,136,3.0,9.0,100,0.00,,,0.01,0.000000,,2013-01-14 09:42:00,
2013-01-13 23:52:00,67.0,67.0,-100.00,SE,136,3.0,9.0,100,0.00,,,0.01,0.000000,,2013-01-14 09:52:00,